Find Starlink 30433

NORAD ID: 57878 Int'l Des: 2023-144 Owner: SPXS Country: US Constellation: starlink operational
LEOCIRCULAR

Live-Position

3D-Globus wird geladen...

Über Starlink 30433

Beschreibung wird geladen...

Nächste Überflüge

Passes for default location (London). Set your location on the main map for personalized predictions.

Höhenverlauf

Loading altitude history...

Zweizeiliger Elementsatz

1 57878U 23144Q 26125.52427683 .00004554 00000-0 17487-3 0 9990
2 57878 43.0027 323.8802 0001002 275.4835 84.5902 15.27584653146337
Epoch: 5. Mai 2026 • Age: 16 hours

Aktueller Status

Höhe 486.8 km
Geschwindigkeit 7.63 km/s
Subsatellitenpunkt 43.15°N, 114.65°E
Startdatum 16. Sept. 2023
Alter 2.6 years
Typ internet

Technische Details

Klassifizierung Payload
Masse 730.00 kg
Trockenmasse 700.00 kg
Gesamtmasse 730.00 kg
Länge 0.30 m
Durchmesser 4.10 m
Spannweite 29.00 m
Form Box + pan
Hersteller SPXS
Bus-Typ Starlink V2M
Phasenstatus In Orbit
Besitzer/Staat SPXS/US

Most Searched